When you browse on this site, cookies collect data to enhance your experience and personalize the content and advertising you see.
Visit our Privacy Policy to learn more. By continuing to use the site, you agree to this use of cookies and data.
  • In Österreich
  • Länderverzeichnis
  • Für 7 Tage
  • Wassertemperatur
  • Wetterkarte
  • News
  • Widgets
  • user-avatar
    Anmelden

    Stündliche Wetter Rosas

    Heute, 17 November, Sonntag

    Zeit Temperatur Niederschläge Wind Luftdruck Luftfeuchtigkeit
    00:00 +16°C° 0.4 mm 0 m/S 616 mmHg 98%
    01:00 +16°C° 0 mm 0 m/S 615 mmHg 98%
    02:00 +15°C° 0.1 mm 0 m/S 615 mmHg 98%
    03:00 +15°C° 0.1 mm 0 m/S 615 mmHg 98%
    04:00 +15°C° 0.1 mm 0 m/S 615 mmHg 97%
    05:00 +15°C° 0.1 mm 0 m/S 615 mmHg 96%
    06:00 +16°C° 0.1 mm 0 m/S 616 mmHg 96%
    07:00 +16°C° 0.1 mm 0 m/S 616 mmHg 95%
    08:00 +17°C° 0.2 mm 0 m/S 616 mmHg 93%
    09:00 +17°C° 0.2 mm 0 m/S 617 mmHg 92%
    10:00 +20°C° 0.2 mm 1 m/S 617 mmHg 90%
    11:00 +21°C° 0.7 mm 1 m/S 617 mmHg 88%
    12:00 +21°C° 0.7 mm 1 m/S 617 mmHg 85%
    13:00 +22°C° 0.7 mm 1 m/S 616 mmHg 83%
    14:00 +22°C° 1.6 mm 1 m/S 616 mmHg 86%
    15:00 +21°C° 1.6 mm 1 m/S 615 mmHg 89%
    16:00 +21°C° 1.6 mm 1 m/S 615 mmHg 92%
    17:00 +20°C° 1 mm 1 m/S 615 mmHg 94%
    18:00 +17°C° 1 mm 0 m/S 615 mmHg 95%
    19:00 +16°C° 1 mm 0 m/S 615 mmHg 97%
    20:00 +16°C° 0.2 mm 0 m/S 616 mmHg 97%
    21:00 +16°C° 0.2 mm 0 m/S 616 mmHg 97%
    22:00 +16°C° 0.2 mm 0 m/S 617 mmHg 98%
    23:00 +16°C° 0.1 mm 0 m/S 616 mmHg 98%

    Morgen, 18 November, Montag

    Zeit Temperatur Niederschläge Wind Luftdruck Luftfeuchtigkeit
    00:00 +16°C° 0.1 mm 0 m/S 616 mmHg 98%
    01:00 +16°C° 0.1 mm 0 m/S 615 mmHg 98%
    02:00 +16°C° 0.1 mm 0 m/S 615 mmHg 98%
    03:00 +16°C° 0.1 mm 0 m/S 615 mmHg 97%
    04:00 +16°C° 0.1 mm 0 m/S 615 mmHg 97%
    05:00 +16°C° 0 mm 0 m/S 615 mmHg 96%
    06:00 +16°C° 0 mm 0 m/S 616 mmHg 95%
    07:00 +16°C° 0 mm 0 m/S 616 mmHg 95%
    08:00 +18°C° 0.2 mm 0 m/S 617 mmHg 91%
    09:00 +21°C° 0.2 mm 1 m/S 618 mmHg 87%
    10:00 +22°C° 0.2 mm 1 m/S 618 mmHg 83%
    11:00 +22°C° 1.4 mm 1 m/S 618 mmHg 85%
    12:00 +22°C° 1.4 mm 1 m/S 617 mmHg 86%
    13:00 +22°C° 1.4 mm 1 m/S 617 mmHg 88%
    14:00 +22°C° 2.4 mm 1 m/S 616 mmHg 89%
    15:00 +21°C° 2.4 mm 1 m/S 616 mmHg 91%
    16:00 +18°C° 2.4 mm 0 m/S 615 mmHg 92%
    17:00 +17°C° 3.8 mm 0 m/S 615 mmHg 94%
    18:00 +18°C° 3.8 mm 1 m/S 615 mmHg 95%
    19:00 +16°C° 3.8 mm 1 m/S 615 mmHg 96%
    20:00 +15°C° 1.8 mm 0 m/S 616 mmHg 97%
    21:00 +15°C° 1.8 mm 0 m/S 616 mmHg 97%
    22:00 +15°C° 1.8 mm 0 m/S 617 mmHg 97%
    23:00 +15°C° 0.3 mm 0 m/S 617 mmHg 97%

    übermorgen, 19 November, Dienstag

    Zeit Temperatur Niederschläge Wind Luftdruck Luftfeuchtigkeit
    00:00 +15°C° 0.3 mm 0 m/S 616 mmHg 97%
    01:00 +15°C° 0.3 mm 0 m/S 616 mmHg 96%
    02:00 +15°C° 0 mm 0 m/S 616 mmHg 96%
    03:00 +14°C° 0 mm 0 m/S 615 mmHg 96%
    04:00 +14°C° 0 mm 0 m/S 615 mmHg 95%
    05:00 +15°C° 0 mm 0 m/S 616 mmHg 95%
    06:00 +15°C° 0 mm 0 m/S 616 mmHg 94%
    07:00 +16°C° 0 mm 0 m/S 617 mmHg 93%
    08:00 +17°C° 0.1 mm 0 m/S 618 mmHg 88%
    09:00 +20°C° 0.1 mm 1 m/S 619 mmHg 83%
    10:00 +22°C° 0.1 mm 1 m/S 619 mmHg 79%
    11:00 +22°C° 0.9 mm 1 m/S 619 mmHg 81%
    12:00 +22°C° 0.9 mm 1 m/S 618 mmHg 83%
    13:00 +22°C° 0.9 mm 1 m/S 618 mmHg 85%
    14:00 +22°C° 1.4 mm 1 m/S 617 mmHg 87%
    15:00 +21°C° 1.4 mm 1 m/S 617 mmHg 89%
    16:00 +20°C° 1.4 mm 1 m/S 616 mmHg 90%
    17:00 +17°C° 1.9 mm 0 m/S 616 mmHg 93%
    18:00 +17°C° 1.9 mm 0 m/S 616 mmHg 95%
    19:00 +16°C° 1.9 mm 0 m/S 616 mmHg 97%
    20:00 +16°C° 0.7 mm 0 m/S 617 mmHg 97%
    21:00 +15°C° 0.7 mm 0 m/S 617 mmHg 97%
    22:00 +15°C° 0.7 mm 0 m/S 617 mmHg 97%
    23:00 +15°C° 0.1 mm 0 m/S 617 mmHg 97%

    20 November, Mittwoch

    Zeit Temperatur Niederschläge Wind Luftdruck Luftfeuchtigkeit
    00:00 +15°C° 0.1 mm 0 m/S 617 mmHg 96%
    01:00 +14°C° 0.1 mm 0 m/S 616 mmHg 96%
    02:00 +14°C° 0.1 mm 0 m/S 616 mmHg 96%
    03:00 +14°C° 0.1 mm 0 m/S 616 mmHg 96%
    04:00 +14°C° 0.1 mm 0 m/S 616 mmHg 95%
    05:00 +15°C° 0 mm 0 m/S 616 mmHg 94%
    06:00 +15°C° 0 mm 0 m/S 617 mmHg 93%
    07:00 +15°C° 0 mm 0 m/S 617 mmHg 92%
    08:00 +17°C° 0.2 mm 0 m/S 618 mmHg 89%
    09:00 +18°C° 0.2 mm 0 m/S 619 mmHg 85%
    10:00 +19°C° 0.2 mm 0 m/S 619 mmHg 82%
    11:00 +22°C° 1 mm 1 m/S 619 mmHg 82%
    12:00 +22°C° 1 mm 1 m/S 618 mmHg 83%
    13:00 +23°C° 1 mm 1 m/S 618 mmHg 83%
    14:00 +22°C° 1.6 mm 1 m/S 617 mmHg 86%
    15:00 +21°C° 1.6 mm 1 m/S 616 mmHg 90%
    16:00 +20°C° 1.6 mm 1 m/S 616 mmHg 93%
    17:00 +19°C° 3.4 mm 1 m/S 616 mmHg 94%
    18:00 +19°C° 3.4 mm 1 m/S 616 mmHg 95%
    19:00 +18°C° 3.4 mm 1 m/S 616 mmHg 97%
    20:00 +16°C° 3.2 mm 0 m/S 617 mmHg 97%
    21:00 +15°C° 3.2 mm 0 m/S 617 mmHg 97%
    22:00 +15°C° 3.2 mm 0 m/S 617 mmHg 98%
    23:00 +15°C° 1.2 mm 0 m/S 617 mmHg 98%

    21 November, Donnerstag

    Zeit Temperatur Niederschläge Wind Luftdruck Luftfeuchtigkeit
    00:00 +15°C° 1.2 mm 0 m/S 617 mmHg 98%
    01:00 +15°C° 1.2 mm 0 m/S 616 mmHg 98%
    02:00 +14°C° 0.2 mm 0 m/S 616 mmHg 97%
    03:00 +14°C° 0.2 mm 0 m/S 616 mmHg 97%
    04:00 +14°C° 0.2 mm 0 m/S 616 mmHg 97%
    05:00 +14°C° 0 mm 0 m/S 616 mmHg 96%
    06:00 +15°C° 0 mm 0 m/S 617 mmHg 95%
    07:00 +15°C° 0 mm 0 m/S 618 mmHg 94%
    08:00 +17°C° 0.2 mm 0 m/S 618 mmHg 89%
    09:00 +20°C° 0.2 mm 1 m/S 619 mmHg 85%
    10:00 +22°C° 0.2 mm 1 m/S 620 mmHg 80%
    11:00 +22°C° 1 mm 1 m/S 619 mmHg 82%
    12:00 +21°C° 1 mm 1 m/S 618 mmHg 83%
    13:00 +21°C° 1 mm 1 m/S 618 mmHg 85%
    14:00 +20°C° 2.2 mm 1 m/S 617 mmHg 88%
    15:00 +19°C° 2.2 mm 1 m/S 616 mmHg 91%
    16:00 +18°C° 2.2 mm 1 m/S 615 mmHg 94%
    17:00 +18°C° 1.8 mm 1 m/S 616 mmHg 94%
    18:00 +15°C° 1.8 mm 0 m/S 616 mmHg 95%
    19:00 +15°C° 1.8 mm 0 m/S 616 mmHg 96%
    20:00 +15°C° 0.9 mm 0 m/S 616 mmHg 96%
    21:00 +15°C° 0.9 mm 0 m/S 617 mmHg 96%
    22:00 +15°C° 0.9 mm 0 m/S 617 mmHg 97%
    23:00 +14°C° 0.8 mm 0 m/S 617 mmHg 97%

    22 November, Freitag

    Zeit Temperatur Niederschläge Wind Luftdruck Luftfeuchtigkeit
    00:00 +14°C° 0.8 mm 0 m/S 616 mmHg 97%
    01:00 +14°C° 0.8 mm 0 m/S 616 mmHg 97%
    02:00 +14°C° 0.5 mm 0 m/S 616 mmHg 97%
    03:00 +14°C° 0.5 mm 0 m/S 615 mmHg 97%
    04:00 +14°C° 0.5 mm 0 m/S 615 mmHg 97%
    05:00 +14°C° 0.1 mm 0 m/S 616 mmHg 96%
    06:00 +15°C° 0.1 mm 0 m/S 616 mmHg 95%
    07:00 +15°C° 0.1 mm 0 m/S 617 mmHg 94%
    08:00 +17°C° 0 mm 0 m/S 618 mmHg 87%
    09:00 +21°C° 0 mm 1 m/S 618 mmHg 80%
    10:00 +22°C° 0 mm 1 m/S 619 mmHg 74%
    11:00 +22°C° 0.8 mm 1 m/S 619 mmHg 77%
    12:00 +22°C° 0.8 mm 1 m/S 618 mmHg 80%
    13:00 +22°C° 0.8 mm 1 m/S 617 mmHg 83%
    14:00 +21°C° 1.5 mm 1 m/S 617 mmHg 86%
    15:00 +21°C° 1.5 mm 1 m/S 616 mmHg 89%
    16:00 +20°C° 1.5 mm 1 m/S 615 mmHg 92%
    17:00 +19°C° 1.9 mm 1 m/S 615 mmHg 94%
    18:00 +19°C° 1.9 mm 1 m/S 615 mmHg 96%
    19:00 +16°C° 1.9 mm 0 m/S 616 mmHg 98%
    20:00 +15°C° 1.9 mm 0 m/S 616 mmHg 98%
    21:00 +15°C° 1.9 mm 0 m/S 616 mmHg 97%
    22:00 +15°C° 1.9 mm 0 m/S 616 mmHg 97%
    23:00 +15°C° 1.5 mm 0 m/S 616 mmHg 97%
    Mehr zeigen